Location: *
(1.3500°S, 147.5000°W)
Time: 00:46:02
(UTC+00:00)

Cosmos 1908 - Pass Details

Date: 07 April 2020
Orbit: 511 x 531 km, 82.5° (Epoch: 06 June)

Event Time Altitude Azimuth Distance (km) Brightness Sun altitude
Rises 05:02:54 0° 178° (S) 2,623 6.7 -17.7°
Reaches altitude 10° 05:05:03 10° 173° (S) 1,736 5.7 -18.3°
Maximum altitude 05:08:47 58° 94° (E) 604 3.1 -19.2°
Drops below altitude 10° 05:12:32 10° 14° (NNE) 1,736 5.8 -20.1°
Sets 05:14:41 0° 10° (N) 2,623 6.8 -20.7°
